Flag Weather past 2 weeks in Newark, New Jersey, U.S.A.

Now
45 °F

Passing clouds.


Feels Like: 43 °F
Forecast: 46 / 58 °F
Wind: 5 mph from West

Location: Newark International Airport

Current Time: Oct 30, 2014 at 8:42:48 AM

Latest Report: Oct 30, 2014 at 7:51 AM


Visibility: 9 mi

Pressure: 29.99 "Hg

Humidity: 93%

Dew point: 43 °F

Location of NewarkLocation

Historic Weather in Newark — Graph

°F

Newark temperature yesterday

Maximum temperature yesterday: 72 °F (at 12:51 PM)
Minimum temperature yesterday: 50 °F (at 11:51 PM)
Average temperature yesterday: 60 °F

Past Weeks' High & Low Weather Summary

 TemperatureHumidityPressure
High76 °F (Oct 15, 12:51 PM)97% (Oct 15, 10:51 PM)30.13 "Hg (Oct 15, 10:51 PM)
Low40 °F (Oct 20, 3:51 AM)32% (Oct 27, 4:57 PM)29.56 "Hg (Oct 26, 3:51 AM)
Average59 °F67%29.83 "Hg
* Reported Oct 15 7:51 AM — Oct 30 7:51 AM, Newark, Weather by CustomWeather, © 2014

Note: Actual official high and low records may vary slightly from our data, if they occured in-between our weather recording intervals... More about our weather records

Advertising

Newark weather history for previous 24 hours

 ConditionsComfort  
Time TempWeatherWind HumidityBarometerVisibility
7:51 AM
Oct 30
45 °FPassing clouds.5 mph93%29.99 "Hg9 mi
6:51 AM44 °FPassing clouds.8 mph96%29.97 "Hg8 mi
5:51 AM45 °FFog.10 mph97%29.96 "Hg1 mi
4:51 AM46 °FPassing clouds.7 mph93%29.94 "Hg7 mi
3:51 AM47 °FPassing clouds.5 mph93%29.94 "Hg10 mi
2:51 AM48 °FPassing clouds.3 mph93%29.95 "Hg10 mi
1:51 AM49 °FPassing clouds.3 mph90%29.95 "Hg10 mi
12:51 AM50 °FPassing clouds.No wind89%29.95 "Hg10 mi
11:51 PM
Oct 29
50 °FPassing clouds.6 mph93%29.95 "Hg10 mi
10:51 PM51 °FMostly cloudy.7 mph89%29.95 "Hg10 mi
9:51 PM52 °FMostly cloudy.8 mph89%29.95 "Hg10 mi
8:51 PM52 °FMostly cloudy.8 mph86%29.93 "Hg10 mi
7:51 PM53 °FMostly cloudy.8 mph83%29.93 "Hg10 mi
6:51 PM54 °FBroken clouds.7 mph83%29.91 "Hg10 mi
5:51 PM54 °FLight rain. Cloudy.5 mph80%29.89 "Hg10 mi
4:51 PM62 °FMostly cloudy.20 mph43%29.88 "Hg10 mi
3:51 PM65 °FMostly cloudy.15 mph42%29.88 "Hg10 mi
2:51 PM69 °FMostly cloudy.17 mph35%29.84 "Hg10 mi
1:51 PM71 °FPartly sunny.18 mph41%29.83 "Hg10 mi
12:51 PM72 °FBroken clouds.9 mph57%29.85 "Hg10 mi
11:51 AM70 °FBroken clouds.12 mph59%29.86 "Hg10 mi
10:51 AM68 °FMore clouds than sun.3 mph70%29.87 "Hg10 mi
9:51 AM66 °FBroken clouds.5 mph78%29.88 "Hg10 mi
8:51 AM62 °FBroken clouds.7 mph86%29.89 "Hg9 mi
Weather by CustomWeather, © 2014

See weather overviewHow to use our weather pages